CZ-3B DEB, 40851

Orbit data source: Space-Track

CZ-3B DEB, 40851 is space debris in HEO originally from a launch on Mon, 19 Dec 2011 UTC launched from the Xichang Space Center, China (XSC). Debris objects in space refer to the collection of defunct objects orbiting the Earth. Examples of debris include non-operational satellites, rocket bodies, and fragments generated from explosions, collisions, or faulty payload assembly.

Loading next visibility...
Identifier
40851, 2011-077AG
Orbit
HEO
Country
Flag of CNCN / PRC
Related business
Manufacturer
CALT
Mission
Spacecraft
Bus & Motor
Unknown
Mass
Unknown
Launch date (UTC)
2011-12-19 (15 years ago)
Launch vehicle
Unknown
Launch site
Xichang Space Center, China (XSC)
Object type
Payload
Rocket body
Debris
Shape & HBR
Unknown shape, 0.2 m
Radar Cross Section
Medium (>0.1 m² and <1 m²)

Expand to show TLE details & history
Last TLE update: 2 days ago

TLE from 2 days ago
0 CZ-3B DEB
1 40851U 11077AG  26255.37220089 -.00000241  00000-0  22496-2 0  9998
2 40851  26.5849 359.9501 7360231  37.3429 355.6612  1.90205546 87887
Epoch: 2026-09-12T08:55Z
TLE epoch observation values (Epoch: 2026-09-12T08:55:58.156Z)
Latitude
-0.00004°
Longitude
-125.42264°
Altitude
1,571.499 km
Speed
9.262 km/s
True Right ascension
23h 59m 48s
True Declination
0° 00' 00"
Sunlit
Object was in full shadow at epoch
Visualization orbit readout
Latitude
Unknown
Longitude
Unknown
Altitude
Unknown
Speed
Unknown
Apparent Right ascension
Unknown
Apparent Declination
Unknown
Sunlit
N/A
Visualization observer readout
Local Sidereal Time
16:29:47
Azimuth
Unknown
Elevation
Unknown
Doppler factor
Unknown
Orbital elements
Apogee altitude
41,396.69 km
Perigee altitude
886.427 km
Semi-major axis
27,519.696 km
Eccentricity
0.73602
Inclination
26.5849°
RAAN
359.9501°
Arg. of periapsis
37.3429°
True anomaly
320.65617°
Mean anomaly
355.6612°
Eccentric anomaly
344.1276°
Mean motion
0.47542 °/min
Orbital period
757.22 mins
BSTAR
0.0022496
Loading maneuver chart data...
Computing Atmospheric mass density...
Loading historical data...
Loading historical data...
Loading historical data...
Loading historical data...
Loading historical data...
Loading historical data...
Loading historical data...

Documentation

Showing up to 5 results
|